Wind_Gust
20 20 20 19 21 21 20 18 18 17 17 17 18 17 16 16 16 14 14 14 15 14 13 12 11 11 11 11 11 11 11 11 10 11 11 11 10 11 11 12 13 10 11 9 7 9 10 9 7 6 7 11 9 9 10 10 12 12 11 12 11 7 13 11 12 9 6 1 3 5 5 4 12 7 11 10 13 12 10 8 9 10 11 13 14
22 21 20 21 22 21 19 18 18 18 18 17 17 18 17 17 15 15 16 14 15 15 14 12 11 11 11 11 11 11 11 11 10 11 13 13 11 10 12 12 12 10 9 9 7 8 8 11 8 7 8 11 9 9 10 12 13 13 11 12 11 9 4 13 7 8 5 8 10 7 7 3 8 6 8 10 12 11 11 12 13 9 11 11 13
20 21 20 21 22 21 20 19 19 19 19 17 17 18 17 16 16 18 16 15 13 14 14 13 12 11 11 12 12 11 11 11 10 11 12 13 13 10 10 11 12 12 11 10 9 8 10 10 8 8 9 12 8 8 8 10 11 13 10 10 11 8 7 7 11 7 8 4 2 5 6 7 7 7 7 5 6 6 10 11 12 13 11 10 12
22 21 21 22 22 21 21 19 20 20 19 18 18 17 18 16 16 16 16 15 16 12 13 13 12 12 12 12 12 12 11 11 10 11 12 12 12 12 10 10 10 10 11 10 10 10 11 11 8 9 11 13 9 9 8 9 11 11 11 9 11 9 6 7 6 9 4 7 5 6 6 6 7 5 8 5 6 11 9 10 7 10 11 12 11
22 22 22 23 23 23 21 21 21 20 19 18 18 18 18 18 17 17 17 16 14 14 12 11 12 12 14 13 13 13 12 12 12 10 9 9 11 11 10 10 10 10 10 10 10 11 11 12 11 11 12 14 9 10 10 11 9 12 11 10 11 9 9 9 8 9 10 7 4 4 3 5 4 4 5 12 12 9 7 11 13 6 11 12 10
22 22 23 24 23 23 22 21 22 21 19 18 19 19 18 18 18 16 17 17 15 13 14 13 14 13 12 12 12 12 11 11 12 11 11 10 10 10 10 10 10 10 9 9 9 9 12 11 11 12 13 15 12 10 11 10 10 11 11 9 10 10 11 9 11 10 11 6 4 7 6 7 8 7 4 8 9 13 16 16 13 15 15 16 15
23 23 23 23 22 23 23 22 21 20 19 19 19 19 19 18 19 19 17 17 17 15 13 13 11 12 11 11 12 12 11 11 12 11 11 11 11 11 11 10 9 9 8 9 9 9 10 10 10 10 12 13 13 12 11 9 11 8 10 11 8 12 11 9 10 10 8 6 4 2 3 4 3 7 7 5 2 4 9 16 19 14 13 11 15
23 23 23 23 23 23 22 21 20 20 19 19 19 19 18 18 18 17 17 17 17 16 17 15 12 11 12 11 11 11 11 10 10 11 12 12 12 11 11 11 10 9 9 9 9 8 8 9 9 8 11 11 12 10 12 12 10 9 6 10 10 13 12 10 10 10 8 6 5 3 3 4 9 5 7 8 13 9 7 6 11 15 17 15 9
23 23 23 23 24 22 20 20 19 18 18 18 19 19 18 18 17 16 16 16 15 15 14 14 13 12 10 11 11 11 13 13 12 14 14 12 11 12 12 12 12 13 11 9 8 8 7 7 7 7 9 12 13 12 11 12 13 13 6 10 11 13 11 10 11 10 6 8 4 2 5 8 5 5 10 6 8 8 10 4 9 11 10 14 19
24 23 24 23 22 22 21 18 20 20 19 20 19 19 18 18 18 17 16 16 15 14 14 13 14 14 13 11 11 12 12 10 12 15 13 14 12 12 11 12 12 12 13 11 8 7 8 7 8 14 14 14 13 13 13 12 11 12 15 13 13 13 12 12 10 9 9 8 3 4 6 8 8 4 4 6 6 7 10 9 11 14 13 13 12
24 24 23 22 22 22 23 21 20 22 21 20 19 19 19 18 18 17 16 15 15 15 15 14 13 13 14 14 13 12 12 11 14 16 16 15 13 12 13 12 11 12 12 12 11 9 6 6 7 11 12 12 12 14 13 12 12 12 11 12 12 17 14 11 9 8 6 5 4 3 2 6 11 4 5 8 7 6 7 8 9 9 10 12 16
24 24 22 21 22 23 23 23 22 20 20 20 20 19 19 18 18 18 17 16 14 14 15 15 14 13 13 13 13 12 11 11 17 16 16 16 13 14 11 13 12 12 12 12 11 10 9 9 7 7 9 10 11 12 11 12 12 11 12 11 10 8 8 12 9 6 5 7 5 5 4 6 7 6 6 3 9 11 9 7 5 4 9 8 11
24 23 22 23 23 23 21 23 24 22 20 20 20 20 19 19 19 18 18 17 14 16 15 14 14 13 14 14 13 12 10 13 17 18 17 16 15 13 12 12 13 12 11 11 11 10 10 10 9 7 9 15 11 8 9 8 8 10 10 9 7 9 7 7 7 8 11 7 5 5 8 5 5 8 5 5 3 6 8 9 6 6 5 7 10
24 23 22 23 23 22 22 22 22 23 23 20 19 20 20 20 19 18 17 16 17 16 14 15 13 14 14 14 13 11 11 13 18 18 17 17 16 13 11 12 11 12 11 12 11 11 11 12 11 9 7 7 8 8 7 7 7 6 6 4 5 5 7 8 8 9 9 9 8 6 7 8 8 7 9 2 5 9 8 9 6 7 9 10 10
23 23 23 22 23 23 22 22 21 21 23 23 21 19 20 19 19 18 19 19 19 19 18 15 14 14 13 13 13 12 12 15 18 19 18 17 16 12 12 11 11 10 11 11 12 12 12 12 10 10 8 7 7 9 9 8 7 7 6 4 3 5 5 6 7 8 8 8 8 11 12 9 10 10 12 8 8 11 8 9 7 6 10 10 9
23 22 23 23 24 24 24 22 21 21 22 22 22 20 19 20 20 18 18 17 16 15 13 14 16 15 13 14 13 13 10 16 18 19 19 17 17 13 12 12 11 10 10 9 10 11 12 11 10 9 10 8 9 12 10 10 8 7 5 3 5 4 4 8 8 9 10 10 10 10 12 12 9 11 14 13 10 5 6 5 4 3 6 10 12
23 24 24 24 24 24 24 24 23 22 22 22 21 20 19 19 17 17 18 17 17 16 16 16 15 16 15 14 15 13 11 14 17 19 19 19 14 11 11 11 10 11 11 10 10 11 14 15 16 14 11 10 9 11 11 10 7 6 6 4 3 5 6 5 4 8 10 10 11 12 15 15 14 15 17 17 13 6 5 6 9 5 10 10 10
23 24 25 25 24 23 23 24 24 22 22 23 22 19 18 17 18 18 20 18 16 16 15 13 12 15 17 16 17 17 14 14 18 18 19 19 15 15 12 12 11 13 14 13 13 14 15 20 15 13 12 12 9 12 12 11 9 8 7 7 6 6 4 6 8 8 8 9 10 11 13 12 12 14 14 10 9 9 10 6 5 4 7 4 8
25 26 25 24 24 23 22 23 24 24 22 21 21 20 19 18 15 15 15 16 17 15 15 15 13 12 14 16 12 18 15 13 16 17 19 19 16 13 14 13 13 12 14 14 11 11 12 14 16 13 13 12 13 13 14 11 11 10 10 10 8 8 11 6 6 5 5 7 3 7 10 11 11 10 10 10 9 11 11 9 4 4 6 9 5
24 22 23 23 23 22 23 23 22 24 23 20 17 18 16 16 15 15 12 14 14 14 15 16 17 15 11 12 14 15 17 13 16 17 18 19 18 17 14 14 14 15 13 13 13 9 10 10 14 15 15 15 15 15 14 13 12 10 9 11 10 13 10 6 6 6 4 5 7 5 8 10 10 7 7 5 5 8 11 9 8 8 6 7 4
22 23 22 21 20 21 18 19 20 18 20 21 18 15 15 16 15 15 14 12 13 12 13 13 14 12 10 11 13 10 13 17 15 17 17 19 20 18 14 15 14 14 14 13 13 14 13 12 10 12 15 16 16 16 15 14 12 13 12 12 16 10 10 7 7 8 5 4 5 7 8 8 7 5 8 5 7 7 7 7 7 9 7 6 7
22 20 21 21 20 20 21 18 18 19 18 21 21 19 15 15 16 16 14 15 16 15 12 12 13 12 9 10 12 13 10 13 17 17 19 20 19 20 16 15 16 15 13 13 12 12 14 13 12 13 17 18 17 17 16 14 14 11 14 11 11 14 15 9 8 6 5 4 5 7 8 8 8 8 8 6 7 6 6 6 7 7 9 8 7
23 22 21 20 19 20 19 19 18 15 17 17 19 19 18 17 15 15 16 15 15 15 14 13 13 13 11 10 11 13 12 11 13 17 16 17 16 16 16 13 11 14 15 14 13 14 11 13 14 14 18 18 17 16 16 16 12 12 13 13 14 14 9 8 7 7 5 3 3 7 9 7 8 8 8 9 8 6 7 7 6 6 6 7 7
22 22 20 19 19 20 20 18 17 16 18 18 17 19 19 18 17 17 17 17 16 16 13 13 13 14 14 12 10 10 10 10 9 12 14 16 17 19 18 16 15 13 14 15 13 13 14 12 12 12 15 16 17 16 16 14 15 14 13 15 14 12 9 8 7 6 4 3 4 7 9 8 7 8 10 10 9 6 8 6 7 5 5 8 7
21 21 20 19 19 19 19 19 18 17 18 19 19 17 17 18 18 14 16 15 16 16 14 14 15 14 14 14 13 11 10 11 11 12 13 14 17 19 18 15 15 15 14 10 11 15 10 10 11 13 15 15 16 14 12 14 15 13 14 14 12 8 9 8 8 7 6 8 8 7 9 11 11 11 9 6 7 6 6 7 5 5 4 4 7
22 22 20 19 19 20 19 16 14 16 17 17 19 19 21 20 19 17 17 17 17 17 16 15 13 14 14 13 15 14 12 12 11 11 10 12 13 13 12 14 14 15 13 13 14 13 10 9 11 13 13 14 12 9 10 14 13 13 12 10 8 9 8 9 6 7 9 8 7 9 11 8 10 9 6 5 6 10 4 4 7 11 8 10 13
21 20 20 19 17 18 19 17 16 15 14 13 15 16 17 18 20 21 20 19 17 15 15 15 15 14 15 14 14 13 13 12 13 13 14 14 14 14 13 10 8 9 11 12 7 7 6 6 9 11 12 16 16 13 11 9 9 9 9 8 9 9 9 9 11 10 8 7 8 10 9 9 8 10 10 6 9 10 3 4 5 8 5 5 5
21 19 19 18 18 19 18 15 19 18 17 16 16 14 13 16 19 21 22 22 21 18 17 17 18 19 16 14 13 13 13 14 16 17 15 14 12 12 12 10 10 11 12 8 8 7 6 4 5 5 6 6 9 4 8 8 9 7 9 9 10 9 7 5 4 5 6 7 8 6 9 9 11 12 10 10 10 11 4 4 3 8 5 3 8
17 17 18 18 18 17 18 20 19 19 19 18 17 19 22 21 20 16 10 14 21 23 21 20 18 16 18 18 18 14 13 17 22 13 19 15 20 17 15 17 15 13 11 9 9 6 7 6 5 7 10 12 9 11 10 10 10 10 9 10 7 7 7 6 9 10 10 7 10 10 12 8 11 11 10 10 12 12 3 4 5 6 6 2 4
17 17 17 17 17 18 17 17 16 16 17 17 15 8 9 7 7 16 16 11 14 16 18 23 21 18 17 17 20 24 23 27 14 16 16 17 18 20 19 17 15 15 11 13 9 8 7 8 8 9 10 11 12 12 13 12 12 11 12 6 8 8 8 9 10 12 9 11 11 9 12 9 10 11 10 10 11 11 6 6 6 3 4 5 9
18 18 16 16 18 19 18 17 16 15 15 16 13 14 10 9 11 9 7 8 10 10 9 7 14 16 21 18 12 9 12 12 14 17 17 18 20 20 19 18 17 16 15 13 7 11 10 10 10 9 9 9 10 13 13 12 12 11 11 7 8 11 10 10 13 10 11 9 10 10 10 9 12 12 11 11 11 12 10 3 3 4 6 7 8
20 19 18 16 17 15 16 17 17 17 15 15 15 15 15 14 5 10 10 9 9 12 13 13 16 16 15 14 13 10 9 14 17 18 20 18 19 20 20 19 18 18 18 17 16 13 11 12 11 11 10 10 12 10 10 11 10 10 10 8 11 10 11 12 12 11 11 10 10 10 11 11 12 13 12 11 7 9 10 11 8 7 7 5 9
20 18 17 18 18 17 17 17 16 16 17 17 16 16 19 18 18 11 6 10 8 6 11 12 14 15 14 13 15 14 12 13 19 19 21 20 19 20 20 19 18 18 15 13 14 13 11 11 13 13 13 14 14 12 12 11 11 10 10 12 12 12 12 14 5 8 8 12 10 11 11 11 12 11 9 8 6 10 8 9 9 6 6 9 11
22 21 20 21 20 17 16 16 16 16 15 17 19 20 19 19 18 16 14 8 7 8 8 6 9 12 13 15 15 11 12 16 19 23 24 24 22 22 18 13 9 13 18 20 16 16 14 15 14 15 16 15 13 11 11 11 11 11 10 11 12 11 12 6 6 11 10 10 10 12 11 11 10 10 11 10 9 6 9 10 8 7 9 10 11
16 15 20 19 20 20 18 17 17 16 15 16 16 16 17 16 15 18 20 21 19 17 12 7 6 9 12 10 10 12 13 16 20 23 24 23 21 14 14 14 11 7 12 11 15 16 17 17 18 18 16 16 15 13 14 12 12 11 12 12 10 10 11 11 11 10 11 11 11 12 12 11 11 10 11 11 9 9 11 11 11 9 10 10 9
15 15 14 15 14 15 16 17 17 18 19 18 17 16 13 13 15 15 13 10 11 12 9 7 7 3 5 6 9 12 13 15 18 22 24 22 17 20 16 12 12 14 16 17 17 18 17 17 17 17 16 16 12 12 13 12 12 13 12 11 11 10 10 11 11 11 11 12 13 13 10 10 11 10 9 9 10 13 11 11 10 9 9 11 9
18 16 15 13 13 12 11 11 11 12 8 10 12 12 11 11 9 10 10 11 11 9 10 8 7 4 4 4 3 7 8 10 11 11 12 14 19 20 18 20 19 17 15 17 16 15 15 17 16 15 14 14 14 13 11 11 11 11 9 11 10 10 11 11 12 9 10 12 12 11 11 13 12 11 12 12 11 10 10 9 9 9 8 9 5
16 19 17 14 12 13 13 12 12 11 13 12 11 12 12 12 12 12 12 13 13 12 12 11 8 12 14 12 7 6 8 8 10 7 6 9 12 13 13 12 14 15 18 16 16 15 17 15 12 14 15 13 13 10 11 12 11 11 11 11 10 11 9 10 8 8 8 10 10 10 10 11 10 9 9 11 11 10 10 9 9 10 9 8 7
13 12 14 14 10 15 14 13 13 14 13 13 14 14 14 13 13 12 13 11 12 12 10 11 12 14 15 10 9 8 11 7 9 12 13 12 11 12 12 12 12 13 12 13 12 13 14 15 14 13 13 13 13 11 12 12 11 11 10 10 10 9 9 9 9 9 9 10 11 10 10 11 9 9 10 10 9 9 10 9 8 9 10 11 10
18 16 15 16 13 14 13 12 12 12 11 13 12 12 12 13 15 15 14 13 14 13 13 14 17 15 10 12 11 12 11 12 12 11 11 11 12 12 12 13 13 14 14 13 14 14 15 16 14 13 14 13 13 12 11 11 11 10 10 10 11 10 10 8 10 9 11 11 10 10 10 11 10 7 7 9 10 9 9 10 10 9 9 9 9
17 16 12 12 12 14 11 12 12 13 12 13 13 14 15 16 14 12 13 13 13 14 14 15 14 9 11 15 14 15 15 14 12 11 13 14 13 12 13 13 13 13 12 13 13 13 14 13 11 12 11 11 10 11 12 12 11 10 11 11 10 10 10 9 9 10 11 10 11 11 11 11 8 7 9 11 8 8 9 9 9 9 8 8 8
15 15 15 12 14 13 13 13 12 12 11 10 12 13 11 12 13 13 13 13 11 13 13 13 13 11 11 16 17 18 14 10 10 10 10 10 11 13 13 13 13 13 12 14 14 13 12 11 11 10 11 11 11 10 10 11 11 10 10 9 10 10 10 12 12 11 11 11 11 12 11 9 9 11 12 6 7 8 7 8 9 9 8 8 8
14 15 14 13 13 13 14 13 11 11 10 11 12 8 10 12 12 12 12 12 13 14 14 14 12 10 11 13 17 16 14 9 7 11 12 12 12 12 12 14 14 13 11 10 9 10 10 11 11 11 12 13 12 12 12 13 12 11 10 10 10 11 12 12 11 11 10 10 10 10 11 10 11 11 8 7 9 7 9 8 8 8 8 8 7
14 14 13 12 11 10 10 12 12 11 13 13 12 11 10 10 11 10 12 12 13 14 15 14 12 12 10 11 12 13 13 11 10 11 12 11 11 12 14 13 11 10 11 11 10 9 10 9 9 10 9 10 10 10 11 12 11 11 11 11 10 11 12 12 12 12 11 12 13 12 12 11 9 7 7 7 7 8 8 7 8 9 9 8 7
13 14 13 12 10 11 10 9 11 11 10 9 9 10 8 11 12 12 13 13 12 12 13 12 12 12 10 12 15 16 16 15 12 10 12 13 13 14 13 11 11 12 12 11 10 9 9 9 10 10 10 11 10 10 11 11 11 12 11 12 13 12 13 12 14 12 9 10 11 11 10 9 8 9 9 9 8 8 9 9 8 6 6 7 8
13 12 12 12 11 9 10 10 8 11 11 11 11 11 9 10 11 12 12 12 12 12 11 11 11 13 12 13 14 14 15 13 13 13 12 11 12 13 11 12 11 11 11 11 10 11 12 12 11 11 12 11 12 11 11 10 10 10 9 10 12 13 13 12 8 7 9 10 11 10 10 9 9 9 9 10 9 8 9 8 5 8 10 8 8
13 12 12 12 13 12 10 10 10 10 10 10 10 10 10 11 10 9 9 11 12 11 11 12 12 13 13 13 14 15 14 14 14 13 15 15 13 12 11 10 10 10 11 11 11 12 11 11 11 12 12 12 10 11 10 10 11 9 10 10 11 12 12 9 9 9 10 10 9 9 10 10 10 10 11 9 8 8 7 9 10 9 8 8 7
13 13 12 11 10 11 10 10 10 8 9 10 10 9 8 9 10 10 10 10 10 11 12 12 14 13 12 12 12 12 12 13 13 13 13 12 12 11 9 9 10 11 10 10 10 11 11 11 11 11 11 11 10 11 11 9 8 8 10 11 11 11 12 8 8 9 8 8 9 9 9 10 9 9 7 7 8 8 8 9 4 3 5 6 7
13 13 12 12 11 12 12 12 10 11 11 9 9 9 8 9 9 9 9 10 11 11 12 12 12 10 10 11 11 11 11 11 13 13 12 11 10 10 10 10 9 10 10 11 10 11 12 12 11 12 11 11 11 11 10 10 10 10 10 10 11 12 12 11 9 9 8 9 8 7 6 7 7 7 7 7 8 7 4 4 7 7 6 6 7
13 12 13 12 11 10 9 9 9 9 8 9 9 10 9 8 9 8 10 9 9 9 10 10 11 12 11 11 11 12 12 13 14 13 13 11 10 10 10 10 10 11 11 11 11 11 11 11 11 11 11 11 10 10 11 11 11 11 9 10 9 10 10 10 9 8 9 7 9 9 10 8 6 5 5 6 6 7 7 7 7 8 8 9 7
12 13 11 12 11 10 10 11 10 9 9 9 10 10 10 10 10 10 9 10 10 10 10 10 10 10 10 11 11 12 13 13 13 12 11 11 11 11 11 10 11 10 10 10 11 10 11 10 11 11 11 10 10 11 11 10 10 9 8 9 9 9 9 9 8 7 8 5 5 6 6 7 6 5 5 7 8 9 9 9 9 9 8 8 8
Wind_Speed
12 12 11 11 13 13 12 11 11 10 10 10 11 10 10 9 9 8 7 7 8 7 7 6 6 6 6 6 6 6 6 5 4 5 5 5 5 6 5 6 7 5 5 5 4 5 6 6 4 4 4 6 5 5 6 5 5 6 5 6 6 3 7 6 7 5 1 0 1 2 2 2 3 3 4 4 6 7 6 4 4 5 5 6 6
13 12 11 12 14 13 12 10 10 10 11 10 10 10 10 9 9 8 9 7 8 8 7 6 6 7 7 6 6 6 6 6 5 5 6 6 5 4 6 6 6 5 5 5 4 5 5 6 5 4 4 6 5 6 6 6 5 6 4 5 5 4 2 6 4 4 3 2 5 3 2 1 3 2 4 4 5 5 7 7 5 4 4 5 6
12 12 12 13 14 13 12 11 11 11 12 10 10 10 9 9 8 10 8 8 6 7 7 7 7 6 6 6 6 6 6 6 5 5 6 7 7 5 5 6 7 7 6 5 5 5 6 6 5 5 5 6 4 4 4 5 4 6 5 4 6 5 4 4 6 4 5 2 0 2 2 2 1 2 3 2 2 1 3 5 5 5 4 4 5
12 12 12 13 14 13 13 12 13 12 12 10 11 10 9 9 8 9 9 8 8 5 6 7 7 7 7 6 6 6 6 5 5 5 6 6 6 6 5 5 5 5 6 6 6 6 7 7 5 6 5 7 4 4 3 4 5 5 5 4 6 5 3 4 4 5 2 4 1 0 2 1 1 1 2 2 3 3 1 4 4 5 6 6 5
12 13 14 15 14 14 13 13 13 13 12 9 11 10 10 9 8 9 9 8 7 7 6 6 7 7 7 7 7 6 6 6 6 5 4 5 6 6 6 5 5 5 5 6 6 6 6 7 6 5 6 8 4 5 4 5 4 5 5 4 6 4 4 5 5 5 6 4 1 1 1 1 1 1 3 5 5 4 4 4 4 4 6 6 4
13 13 13 14 14 14 13 12 13 13 12 11 11 11 10 10 10 9 10 10 8 7 8 7 7 7 6 7 7 6 6 6 6 6 6 5 5 5 5 5 5 5 5 4 5 5 6 6 5 6 7 8 6 4 4 5 4 5 5 5 5 5 7 6 6 6 7 3 2 1 2 2 3 1 1 3 3 5 7 7 6 3 4 8 8
13 14 14 14 13 14 13 13 12 12 11 11 10 10 10 10 10 10 9 10 10 9 7 7 5 7 7 7 7 7 6 6 6 6 6 6 6 6 6 5 5 5 4 4 4 4 5 6 6 6 7 7 7 6 6 5 5 5 6 6 5 7 7 6 6 6 5 4 1 1 1 1 1 3 3 2 0 0 2 6 7 6 6 4 7
14 14 14 13 14 13 13 13 12 12 11 11 11 10 9 10 10 9 9 10 9 9 10 9 6 6 7 7 6 6 6 6 5 6 6 6 6 6 6 6 6 4 4 4 4 4 5 5 5 5 7 7 7 6 7 7 5 5 4 5 6 7 7 6 6 6 5 3 2 1 1 1 5 2 3 4 6 3 3 2 6 7 8 6 3
14 14 14 14 14 13 11 11 11 11 10 10 11 11 10 10 10 9 9 9 8 8 8 8 8 7 6 6 7 6 7 7 6 7 7 6 6 7 7 7 6 6 4 4 4 4 4 4 4 5 6 8 9 8 7 8 7 7 4 5 7 8 6 6 6 6 4 5 2 1 1 2 1 3 6 3 4 4 4 1 3 4 5 7 8
14 14 14 13 12 13 12 11 11 12 11 11 11 11 10 10 10 10 10 9 9 8 8 8 8 8 8 6 6 6 6 5 7 12 9 8 7 6 6 6 6 6 6 5 4 4 4 4 5 10 10 10 9 9 9 8 7 7 8 7 8 8 7 7 6 6 6 5 2 2 2 2 2 1 1 3 3 3 5 3 5 6 4 5 6
13 14 14 13 13 12 12 11 12 13 13 11 11 11 11 10 10 10 9 9 9 9 9 9 7 7 8 8 7 6 6 5 11 12 13 12 8 7 7 6 5 6 6 6 6 5 4 4 4 6 7 8 6 10 9 8 8 9 9 9 8 10 8 7 6 5 3 3 3 2 1 2 3 2 3 4 3 3 3 3 4 5 4 5 5
13 13 13 13 13 14 13 13 11 10 12 12 12 11 11 11 11 10 10 9 8 8 9 9 8 7 7 7 7 6 6 8 13 13 13 13 10 8 6 6 6 5 6 6 5 4 4 3 3 3 4 5 5 6 8 8 8 8 9 9 8 7 7 7 5 3 3 4 3 2 2 3 2 2 3 1 4 5 4 3 2 2 5 4 3
13 13 13 13 14 13 13 13 14 12 11 12 12 11 11 11 11 10 11 10 9 9 9 8 8 7 7 8 7 6 5 9 13 13 13 13 12 9 6 6 7 6 5 6 5 5 4 4 3 3 3 10 7 5 6 5 6 8 7 7 6 8 6 6 6 4 6 4 3 2 5 3 2 3 3 1 1 2 4 3 2 2 2 4 5
13 13 13 14 14 13 13 13 13 14 13 11 11 12 12 12 11 10 9 9 10 9 8 9 7 7 8 8 7 6 6 9 13 13 13 13 12 10 6 7 6 6 6 6 5 5 5 6 5 4 3 4 4 5 4 4 4 3 3 3 3 4 5 6 6 8 7 5 5 2 4 4 4 3 3 1 1 3 2 4 3 3 4 4 5
13 13 13 13 14 13 13 13 13 13 14 14 12 11 12 11 11 10 9 10 10 10 10 9 7 7 7 7 7 7 6 11 13 14 13 13 13 9 6 6 6 5 5 5 6 6 5 5 5 4 3 3 4 4 5 4 4 4 3 3 2 3 4 4 4 5 4 4 4 5 4 5 6 6 5 3 5 5 4 5 4 3 5 5 5
13 13 14 14 14 14 14 13 12 11 13 13 13 12 11 12 12 10 9 8 8 8 7 8 9 9 8 8 7 8 6 12 14 14 14 13 13 7 7 7 6 5 5 4 4 3 4 5 4 5 6 6 6 8 7 5 4 4 3 1 1 1 2 5 7 7 6 6 6 6 6 6 7 6 6 4 3 3 3 1 1 1 2 4 5
14 14 14 14 14 14 14 14 13 13 12 13 12 12 11 11 10 9 9 9 9 9 9 9 9 9 8 8 9 8 7 11 14 15 14 15 11 6 6 6 6 6 6 5 6 7 7 9 9 8 7 6 7 9 9 8 5 4 4 2 1 3 2 0 3 7 9 9 9 10 8 9 10 10 11 9 7 3 2 1 3 2 1 4 5
13 14 14 15 15 14 14 14 14 13 13 14 13 11 10 9 10 9 10 10 9 9 9 7 7 8 10 9 10 9 8 10 15 14 15 16 12 8 7 7 6 7 7 6 6 6 7 12 10 8 7 7 9 11 11 8 5 5 5 4 4 4 3 1 0 1 3 6 8 9 9 9 9 9 8 9 7 7 5 3 2 1 3 0 2
14 15 15 14 14 13 13 13 14 14 12 11 12 12 11 10 8 8 8 8 9 8 8 8 7 7 8 9 10 10 7 8 13 14 15 16 11 7 8 7 7 5 5 6 6 6 5 9 13 9 8 8 11 11 12 8 6 6 6 5 5 5 7 4 4 3 1 0 1 1 2 4 4 4 1 6 6 8 6 5 2 2 3 3 2
14 13 13 13 12 12 12 14 14 14 14 12 10 10 9 8 9 9 7 7 7 7 7 9 10 8 7 6 7 8 8 7 11 14 14 14 14 10 6 8 7 9 8 7 6 5 5 5 8 12 13 12 13 13 12 11 7 6 5 6 6 8 6 4 4 4 3 3 3 2 3 2 3 3 2 2 2 5 6 5 5 5 4 3 2
13 13 13 12 12 12 10 7 8 6 9 12 11 9 8 9 9 9 8 7 7 6 7 7 8 7 6 7 8 6 7 9 10 14 13 14 14 13 7 9 9 8 8 8 7 8 7 6 6 10 13 12 13 13 12 12 9 7 7 7 9 5 6 4 4 6 3 3 1 1 2 3 3 3 2 1 3 3 4 4 4 5 5 3 2
12 12 13 13 12 11 9 9 10 10 9 10 11 11 9 9 9 9 7 8 9 9 7 6 7 7 6 6 7 8 7 10 9 13 15 16 16 16 9 8 9 8 7 7 6 6 7 7 7 9 13 12 12 12 12 11 11 6 8 9 7 7 9 4 3 3 2 2 2 2 2 3 3 2 2 2 4 3 3 3 4 4 6 5 4
11 11 12 12 11 12 11 12 11 8 8 9 11 11 10 10 9 9 9 9 9 9 8 7 7 7 6 5 5 6 6 7 9 9 13 14 14 14 14 10 10 8 8 8 7 8 6 7 8 11 13 13 12 13 12 13 9 8 11 9 8 10 6 3 3 3 2 2 1 3 3 2 2 3 3 4 5 3 3 3 2 3 4 4 4
11 11 11 11 11 12 12 12 10 9 10 10 10 11 11 10 10 9 9 10 9 9 7 7 6 7 7 5 4 5 5 5 7 10 10 14 14 16 15 14 13 9 8 7 7 7 8 7 7 10 12 14 14 13 13 12 9 12 10 9 9 6 3 3 3 3 2 2 2 3 4 3 2 3 5 4 5 4 4 4 4 2 3 4 4
12 12 11 11 11 11 11 11 10 10 10 11 11 10 10 11 10 8 9 9 9 8 7 7 7 7 7 8 7 6 6 6 5 8 12 12 14 16 15 13 13 12 8 6 6 7 8 10 10 10 12 13 13 12 9 10 12 10 9 9 7 4 4 3 4 2 3 4 4 3 5 5 5 4 3 3 4 3 4 4 2 2 2 3 3
11 12 11 11 11 12 11 10 9 10 10 9 11 10 11 10 10 9 9 9 9 8 8 7 7 8 8 7 8 7 6 6 6 6 7 9 8 8 8 9 11 12 11 9 13 12 9 8 9 9 8 9 6 5 6 8 11 11 8 6 4 5 5 4 3 3 5 5 4 5 6 4 3 4 3 3 3 6 2 2 3 6 5 6 7
11 10 11 11 10 11 12 10 8 8 8 7 7 8 9 9 10 10 10 10 9 8 8 8 7 7 8 7 7 7 7 7 7 6 6 6 6 5 4 3 5 8 7 7 5 5 4 4 6 7 6 9 9 7 8 7 6 5 4 4 5 5 4 4 5 5 4 3 4 6 6 6 4 3 4 2 4 5 2 2 1 4 1 2 1
11 11 11 10 10 10 10 12 12 9 9 9 8 7 7 9 10 11 12 11 11 9 9 9 9 9 8 8 7 7 7 6 7 8 8 8 7 6 5 4 5 7 7 4 4 4 4 3 3 2 3 2 3 2 4 4 5 4 5 5 5 4 4 4 3 3 3 5 5 4 4 3 5 5 4 4 5 6 2 2 2 2 1 1 2
10 11 11 10 10 9 10 10 9 10 9 9 9 10 12 11 10 9 6 8 11 12 11 10 9 9 9 9 9 8 7 8 11 11 11 12 12 9 7 8 7 6 6 8 5 4 4 3 2 2 3 5 4 5 6 6 5 5 4 4 4 4 5 4 5 5 5 5 6 6 7 5 6 4 3 5 6 6 1 1 1 4 1 1 3
11 10 10 10 9 10 9 9 8 9 9 9 8 4 7 5 5 8 8 8 9 11 13 11 11 9 9 9 10 12 11 14 12 14 13 13 15 16 15 14 13 10 9 11 6 4 3 4 4 5 5 5 6 6 7 7 7 6 6 5 5 5 5 5 5 5 6 6 6 5 7 5 6 6 4 5 6 6 3 4 3 2 1 1 3
9 9 9 9 10 10 10 9 8 8 8 8 7 8 6 5 7 4 6 7 8 8 7 5 11 13 12 9 8 7 6 4 11 14 14 14 15 15 14 13 14 13 11 8 3 5 5 6 5 5 5 5 5 6 6 6 7 6 6 5 5 6 5 5 6 5 7 5 6 6 6 6 7 6 6 6 6 7 3 1 1 2 3 3 3
11 10 10 9 10 10 9 9 9 9 8 8 8 8 8 8 3 9 6 9 8 9 10 9 13 14 13 10 9 6 6 10 12 13 15 15 14 14 14 14 14 14 15 13 6 6 6 6 5 5 5 6 6 6 6 6 6 6 5 4 6 5 6 7 6 5 5 5 6 6 6 6 7 7 6 6 4 5 6 4 3 2 1 2 4
11 10 10 10 10 10 9 9 9 9 9 9 8 8 9 8 8 5 4 9 7 6 6 6 9 11 9 8 12 12 11 11 13 13 13 14 14 14 15 15 14 12 10 6 7 7 6 6 7 6 6 7 6 6 6 6 6 5 5 5 5 5 6 5 2 5 5 6 6 6 7 7 6 6 5 5 4 6 5 5 5 2 2 3 5
12 11 10 11 10 9 8 8 9 9 8 8 9 10 10 10 9 8 8 5 4 6 7 5 8 10 11 12 13 10 10 11 12 13 13 13 14 15 11 4 7 11 12 9 8 8 7 7 7 7 7 7 7 6 7 6 6 6 5 5 5 5 5 2 3 6 5 5 6 7 6 6 6 6 6 6 6 5 5 6 5 4 4 4 6
9 10 15 13 10 10 9 9 8 8 8 8 7 8 8 7 7 9 9 9 9 8 6 3 4 8 8 7 8 10 10 11 12 13 12 13 12 10 11 7 5 3 5 5 7 7 8 9 9 9 8 8 8 7 8 7 7 6 6 6 6 6 6 4 6 6 6 5 6 6 7 7 6 6 6 6 5 5 6 6 6 6 5 5 5
8 8 8 9 8 7 8 8 8 8 9 8 7 7 6 7 8 8 7 6 6 6 4 3 3 2 4 6 8 10 10 10 11 11 12 9 11 15 7 6 6 6 7 8 8 9 8 8 7 8 8 8 6 6 6 6 7 7 6 6 7 6 6 6 6 5 5 5 6 6 6 6 6 6 5 4 6 7 6 6 6 5 5 5 5
9 9 8 7 7 6 6 6 6 7 6 7 7 7 7 6 6 6 6 6 6 5 6 5 4 3 3 0 2 6 7 8 7 6 4 4 13 10 7 8 9 8 8 8 9 8 8 8 8 7 7 7 7 7 6 6 6 6 6 6 6 6 6 7 6 4 5 4 5 5 6 6 6 5 6 7 7 6 6 5 5 4 4 5 4
10 10 9 8 7 8 7 7 7 8 8 7 6 7 7 7 6 6 6 5 6 6 7 6 5 6 7 6 4 4 5 6 7 6 6 7 6 6 6 6 6 7 9 7 8 8 8 8 6 7 8 6 5 5 5 6 6 6 6 7 6 6 7 6 5 4 4 3 5 5 5 6 6 6 5 7 7 6 6 5 4 5 5 4 5
7 9 12 12 9 8 8 8 8 7 7 7 7 7 8 7 7 7 6 6 6 6 5 6 7 7 7 5 5 5 7 4 4 4 4 5 6 6 7 7 7 7 6 7 6 7 7 7 7 7 6 5 7 6 6 6 6 6 6 5 6 5 5 6 6 4 3 4 5 5 4 5 5 6 6 6 6 5 5 4 4 5 6 6 5
10 9 10 13 8 8 8 8 7 6 6 7 6 6 7 7 7 7 7 7 7 7 6 6 7 8 5 6 6 5 5 6 6 6 5 5 6 7 6 7 8 8 8 7 7 7 8 7 6 6 6 6 7 6 6 6 6 7 6 6 6 6 6 5 4 4 4 4 3 4 5 5 5 3 4 5 6 4 4 5 6 5 6 6 5
9 9 9 9 9 8 7 7 6 6 6 7 7 7 8 8 7 6 6 6 6 7 7 7 7 5 5 7 11 11 7 7 6 5 6 7 6 6 7 7 7 7 7 7 7 7 7 7 6 6 6 6 5 6 6 6 6 6 6 6 6 6 6 5 5 5 5 5 5 5 5 5 4 4 6 6 5 5 5 5 5 5 5 5 5
8 8 8 7 9 8 8 7 7 7 6 7 7 7 6 6 6 6 7 7 7 7 6 6 5 4 6 11 11 12 6 4 5 5 4 4 5 6 7 7 6 7 6 7 7 7 7 6 6 5 6 6 6 5 5 6 6 5 5 5 6 6 5 6 6 6 6 6 6 6 6 6 5 7 7 5 4 5 4 5 5 5 4 5 5
8 8 8 8 7 7 7 6 6 6 6 6 6 5 6 7 6 7 7 7 7 7 7 6 5 5 6 9 10 10 6 5 5 6 6 6 6 5 6 7 7 7 6 6 4 6 6 6 6 6 6 7 7 6 7 7 6 6 6 6 6 6 6 6 6 6 5 5 6 6 6 6 6 7 6 3 4 4 5 5 4 5 5 5 5
8 8 7 7 6 6 6 7 7 6 6 7 6 6 6 6 6 6 6 6 7 7 6 6 5 5 5 6 7 7 7 6 5 5 6 5 5 6 7 6 6 5 5 6 5 5 5 5 5 6 5 6 6 6 7 7 6 6 6 6 6 5 5 6 6 6 5 6 6 6 6 7 6 5 4 4 4 5 5 4 5 5 5 5 4
7 8 8 7 6 6 6 6 6 6 6 6 6 5 5 6 6 6 6 6 6 6 6 6 5 6 6 6 7 8 7 7 6 6 6 6 7 7 6 5 5 6 6 6 5 5 5 4 5 5 5 6 6 6 6 6 6 6 5 5 6 6 6 7 7 6 5 5 6 6 5 5 5 6 5 5 5 5 5 5 5 5 4 4 4
7 7 7 7 6 6 6 5 5 6 6 6 6 6 5 5 5 6 6 6 6 6 6 6 6 6 7 7 6 6 7 6 7 7 6 6 6 6 5 5 5 5 5 4 4 5 5 6 6 6 7 6 6 6 6 5 6 6 6 6 7 7 8 7 5 4 5 5 6 6 6 6 6 5 6 6 6 5 5 4 4 5 6 5 5
7 6 7 6 7 6 6 6 6 7 6 6 6 6 6 6 5 5 4 6 5 6 5 5 5 6 6 6 7 7 7 7 7 7 8 7 6 6 6 5 5 5 5 5 5 6 6 6 6 6 6 6 5 6 6 6 7 6 6 7 7 7 7 5 5 5 5 6 6 6 6 6 6 6 7 6 3 4 5 6 5 5 5 5 4
6 6 6 6 6 6 5 6 6 5 5 6 6 5 5 5 5 5 5 5 5 5 5 5 5 5 6 6 6 6 6 7 7 6 6 6 6 6 5 5 5 6 5 4 5 6 6 6 6 6 6 6 6 7 6 6 5 5 7 6 6 7 8 7 5 6 5 5 5 6 5 6 6 6 4 5 5 5 5 5 3 2 3 4 5
6 7 6 6 6 6 6 6 5 6 6 6 5 5 5 5 5 5 5 5 5 5 5 5 5 5 5 5 5 5 5 5 6 6 6 6 5 5 6 5 4 5 5 6 6 6 6 6 6 6 6 6 6 6 6 6 7 6 6 6 7 10 10 9 7 6 6 6 4 4 4 4 4 4 4 5 5 3 3 2 4 4 3 3 5
6 6 6 6 6 5 4 5 4 5 4 5 5 5 5 5 5 4 5 4 4 4 4 5 5 5 5 5 5 6 6 6 7 7 6 5 6 5 5 5 5 5 6 6 6 6 6 6 6 6 6 6 6 6 6 6 6 6 5 6 8 9 8 9 8 7 6 4 5 5 6 5 4 3 2 3 3 4 4 4 4 5 5 5 5
5 6 5 6 6 5 5 6 6 5 5 5 5 5 5 5 5 4 4 5 4 5 5 5 5 5 6 6 6 6 6 6 6 6 5 5 5 5 5 5 5 5 5 6 6 5 5 5 6 6 6 6 6 6 6 6 6 5 7 8 8 8 8 8 5 7 7 4 3 4 4 4 4 3 3 4 4 4 6 5 5 5 5 5 5
Wind_Direction
165 164 159 157 155 161 162 163 165 163 163 168 166 167 166 164 160 154 142 155 149 151 156 157 156 148 143 143 142 141 138 135 131 126 125 127 128 128 130 128 124 129 127 112 103 109 109 108 105 108 117 102 102 95 84 83 77 78 82 89 89 92 109 108 116 120 49 285 38 39 345 26 18 15 21 1 356 349 352 350 349 352 346 339 328
168 163 161 158 159 159 160 161 162 162 164 169 169 166 165 163 154 146 158 156 156 156 157 155 150 147 143 142 142 141 143 140 142 135 136 133 132 133 134 133 129 134 130 128 111 106 113 111 106 109 112 114 117 109 118 107 101 93 82 98 99 81 82 108 121 117 117 3 28 8 357 25 43 355 37 355 349 344 347 340 341 344 337 332 330
163 159 158 156 158 157 158 163 163 165 167 170 170 166 161 154 155 155 156 156 157 159 158 154 150 145 143 146 145 148 148 147 149 144 145 144 142 141 143 141 143 144 138 135 128 125 117 119 126 125 119 110 112 115 112 110 106 104 108 105 100 90 74 108 118 105 122 90 264 359 336 319 60 347 348 327 315 283 313 335 329 326 332 328 321
160 159 155 154 154 156 162 162 164 167 169 170 169 163 154 155 157 155 152 155 160 157 154 152 147 150 149 149 152 150 150 149 150 153 151 148 144 145 146 143 141 143 140 140 143 140 136 127 140 134 123 109 101 96 86 100 104 107 104 99 103 98 86 84 91 129 136 106 0 134 283 337 309 297 336 324 346 337 334 301 317 326 332 337 327
161 160 156 154 157 159 162 163 166 167 168 167 164 156 159 153 156 153 153 160 160 152 154 153 150 155 157 158 157 157 157 155 153 153 148 146 145 146 149 146 145 145 147 152 150 144 144 140 144 129 121 115 119 123 132 116 118 112 108 104 100 99 76 80 82 91 109 118 148 271 280 278 258 308 26 15 343 344 335 347 324 306 330 323 315
162 159 158 156 159 161 162 164 167 167 165 163 161 162 160 159 157 157 161 162 160 163 160 163 162 159 158 160 157 157 157 159 160 157 152 144 141 144 146 147 150 153 159 153 145 151 142 138 141 140 134 135 145 140 135 130 124 117 116 111 109 96 91 80 89 96 101 112 137 56 0 31 338 314 313 39 14 346 346 339 338 349 1 342 330
162 160 160 159 160 164 164 167 166 166 164 161 160 159 161 160 158 162 166 163 163 164 165 159 162 158 159 156 159 158 158 160 158 155 152 150 151 148 149 150 156 161 157 146 146 139 136 139 147 151 144 143 144 149 143 134 133 138 138 132 124 106 101 102 102 100 108 118 70 105 337 324 64 326 315 7 278 124 353 338 342 326 337 349 320
163 160 159 160 162 165 165 164 164 164 161 158 158 159 158 158 160 157 159 164 169 169 166 165 156 156 159 161 160 155 156 160 160 158 157 158 154 155 156 158 159 154 139 141 140 137 144 151 155 156 149 152 148 155 145 143 138 132 149 126 123 110 114 118 105 110 114 94 106 46 354 309 346 304 305 359 7 346 44 33 317 321 329 321 262
164 160 161 163 163 161 162 162 161 160 158 153 152 156 162 159 156 159 166 167 169 168 159 152 151 154 158 160 159 158 161 169 169 164 161 163 159 158 161 159 158 150 144 139 139 142 149 154 155 153 156 159 158 156 159 152 145 142 164 132 122 116 115 111 118 114 105 114 102 43 47 14 347 9 345 348 337 297 301 53 275 287 304 319 316
164 162 165 163 158 157 159 160 159 153 155 159 160 158 158 158 156 163 169 168 164 159 157 157 159 160 161 164 162 163 170 170 176 172 167 162 163 158 155 159 156 153 149 145 149 159 159 157 165 162 161 159 158 156 154 155 153 151 154 141 133 124 128 128 131 134 130 116 148 117 43 320 288 270 251 251 254 295 325 343 336 312 328 306 286
165 165 165 159 156 154 153 158 160 161 160 158 157 158 160 159 158 165 167 164 162 161 158 159 164 166 166 166 168 170 172 178 175 172 170 163 159 159 159 160 156 152 155 156 161 168 172 168 159 154 151 150 147 148 145 144 142 141 143 147 147 140 134 129 144 154 141 152 165 126 162 272 278 214 223 267 273 276 276 296 284 310 342 353 342
166 164 161 158 157 158 158 157 161 161 156 157 158 162 160 159 159 166 165 164 163 158 163 169 166 166 165 165 169 173 176 179 171 173 171 169 164 159 156 157 157 158 158 157 156 156 158 143 127 127 141 147 143 135 131 132 134 135 134 134 137 135 146 145 147 134 143 139 154 196 164 211 246 224 249 246 311 325 315 326 263 297 321 329 301
165 162 160 159 159 159 158 161 160 161 164 157 159 160 162 159 161 166 171 169 157 164 172 164 170 168 166 167 174 175 176 175 171 174 174 173 166 153 156 155 157 162 161 158 155 154 152 144 138 142 167 158 144 142 141 145 150 148 143 139 139 144 147 148 147 152 162 145 160 190 190 191 233 250 205 208 168 265 305 319 288 275 237 274 269
164 163 161 160 159 160 161 162 165 164 160 159 161 163 163 164 167 169 165 161 165 167 166 170 167 171 171 172 171 173 176 175 173 175 176 173 165 154 153 158 160 161 162 159 157 161 163 159 159 165 192 159 149 154 152 153 153 138 126 129 156 173 171 178 173 159 166 167 162 180 227 169 206 235 223 169 221 243 249 272 265 294 290 262 269
163 161 162 161 158 159 161 163 166 166 162 159 163 167 166 163 166 169 168 169 170 171 171 172 174 172 173 168 164 173 188 171 175 177 177 171 165 152 149 152 154 157 160 162 165 165 165 158 165 169 180 176 177 170 161 166 155 147 136 136 173 202 196 199 197 193 192 192 186 206 211 203 228 243 259 203 217 225 206 222 245 251 278 288 279
163 162 161 161 162 162 161 162 163 165 160 159 161 165 166 167 169 168 166 169 171 164 166 166 170 176 174 165 165 180 183 174 177 178 175 171 161 153 153 155 158 157 161 166 161 160 146 126 137 186 209 205 200 186 176 159 149 146 136 129 107 149 216 225 209 199 195 190 196 207 215 207 215 236 247 239 233 230 231 272 309 276 319 330 328
164 164 161 162 164 163 162 161 164 165 163 161 162 162 165 167 166 162 166 170 167 170 170 174 176 171 169 171 176 180 179 181 180 177 176 169 161 152 155 149 157 162 167 167 163 179 181 176 188 190 192 203 198 189 183 160 151 155 150 134 134 123 139 250 210 207 208 201 210 224 234 245 249 253 257 248 233 186 115 354 281 171 19 350 319
165 162 165 166 165 164 163 163 164 167 164 166 160 162 165 163 167 168 170 168 171 171 166 163 169 173 172 178 180 177 189 181 180 180 176 173 168 160 159 156 162 173 181 179 176 193 199 196 198 198 189 198 190 186 188 170 166 169 159 146 149 158 200 244 275 196 211 219 225 234 239 249 258 267 269 260 225 171 150 198 239 136 310 196 283
166 167 167 165 163 162 163 165 165 165 165 161 156 159 167 166 161 162 167 168 167 161 161 160 165 175 183 181 176 175 176 178 182 180 179 177 169 155 160 161 161 161 166 196 203 199 208 216 206 197 196 192 185 188 190 182 172 179 176 156 173 191 210 191 165 172 220 114 240 317 307 269 254 256 252 240 202 180 193 216 154 173 254 276 261
166 159 158 161 159 161 167 170 169 164 159 151 154 160 153 149 154 159 156 159 155 158 166 166 170 180 175 166 168 175 169 172 186 186 181 179 171 166 160 150 163 183 193 193 195 212 216 225 213 201 202 190 188 190 195 187 178 180 162 169 178 208 207 184 199 174 203 205 232 249 248 236 244 257 238 232 220 190 201 210 196 191 210 240 225
157 159 158 157 159 160 161 148 134 141 146 143 150 146 149 151 149 152 152 148 144 148 165 171 166 160 156 164 170 166 171 177 188 183 181 181 183 167 178 182 181 182 187 197 197 196 208 213 225 207 208 200 193 193 194 196 188 175 185 188 196 198 149 180 208 198 203 220 253 274 279 303 301 295 292 281 269 235 216 214 196 192 199 208 208
155 155 157 157 154 146 137 139 162 162 157 150 144 144 145 147 154 154 149 151 155 157 163 165 160 155 156 164 168 169 179 183 177 185 182 186 191 184 177 192 185 182 186 196 204 211 208 207 211 212 204 203 200 196 197 198 199 194 210 217 206 155 168 197 175 173 208 213 235 285 315 338 337 334 330 301 272 255 225 209 196 208 217 208 191
152 151 151 151 143 138 143 156 154 155 155 156 145 143 144 149 154 152 153 153 154 155 162 165 160 158 160 166 154 168 174 181 178 180 189 188 195 198 192 188 185 181 187 194 198 207 208 209 212 205 198 202 202 201 199 201 198 216 221 219 201 183 171 157 167 172 197 213 249 283 301 320 323 304 309 291 271 260 258 265 234 206 230 237 227
148 148 149 144 141 151 153 153 157 156 158 153 148 147 152 154 155 159 158 155 155 158 166 167 160 156 159 159 164 179 186 171 175 178 182 189 193 202 204 195 181 187 186 197 192 198 203 207 203 191 195 201 203 203 204 197 203 219 221 215 200 180 178 168 185 207 195 203 246 284 277 253 231 268 264 263 281 297 295 285 278 257 250 245 239
152 153 152 147 146 151 154 157 158 159 159 152 148 153 153 151 152 157 153 157 161 165 170 169 168 162 160 169 178 182 183 181 179 185 183 197 201 203 205 195 193 185 186 203 188 198 207 194 192 189 196 201 204 206 210 212 219 224 222 214 190 180 198 202 214 191 217 235 239 252 263 252 223 238 259 275 286 301 304 297 284 257 269 280 259
157 158 154 152 154 154 154 155 156 158 155 156 154 157 157 158 156 158 158 165 171 171 166 167 167 168 172 175 182 179 177 180 182 182 189 197 209 210 200 196 195 196 192 194 203 198 195 186 191 197 200 202 196 198 205 215 221 225 231 220 199 202 202 205 216 202 233 240 232 235 243 256 257 248 257 265 298 287 290 303 347 323 7 11 354
155 155 154 153 150 152 150 150 145 146 145 144 149 154 158 162 161 163 171 175 175 169 165 170 171 172 177 170 166 173 182 186 187 184 184 187 198 186 173 196 186 180 188 201 163 118 148 170 197 200 203 195 200 207 213 218 218 229 223 204 208 213 204 202 208 214 236 247 244 247 252 255 283 304 290 329 302 282 201 237 272 268 15 21 13
155 153 150 149 149 151 151 148 146 148 153 152 152 153 165 171 172 177 177 173 171 177 175 178 179 178 173 169 165 174 189 190 192 190 190 187 184 169 181 186 184 181 186 186 141 126 123 124 117 117 158 151 194 221 241 235 224 222 222 209 211 203 204 202 207 203 225 219 239 252 275 275 280 270 293 296 269 275 218 206 210 284 0 25 6
154 152 151 148 148 149 147 153 156 156 158 163 169 170 174 180 178 185 194 180 178 173 180 185 185 180 166 164 167 176 188 204 216 198 190 180 175 175 185 198 196 199 187 151 122 90 92 100 108 129 157 189 189 215 227 229 237 224 227 223 206 197 195 190 211 221 227 227 245 244 254 260 263 268 272 288 269 262 208 195 244 213 307 118 210
144 146 147 147 146 147 151 157 158 157 158 161 149 88 31 97 167 175 179 193 194 190 176 181 180 165 171 186 177 175 186 211 199 172 186 184 187 187 193 192 190 187 173 164 150 130 146 164 182 184 191 188 204 213 218 216 224 228 229 216 202 202 205 210 213 225 218 219 231 235 248 243 262 264 258 252 280 276 234 200 228 177 197 236 289
146 148 150 154 158 157 155 156 159 157 160 157 154 142 125 50 50 110 177 173 177 172 185 153 156 173 171 178 209 220 209 149 145 175 181 188 194 198 198 196 192 188 162 141 162 167 179 187 194 188 202 206 216 224 220 217 223 224 229 210 201 205 211 219 226 222 224 228 231 233 243 231 246 249 246 248 246 273 294 264 168 152 200 228 258
154 158 160 154 153 152 153 154 156 158 159 156 156 158 154 143 105 32 59 152 164 167 179 167 173 180 187 174 164 179 165 165 170 175 185 190 196 198 198 195 195 183 183 173 173 199 191 195 199 204 196 203 222 221 222 225 228 225 223 218 233 214 210 231 228 214 232 228 234 239 237 237 238 244 240 247 248 261 269 274 235 222 233 204 235
153 155 151 148 150 150 151 155 160 160 159 158 162 166 160 162 158 147 43 48 90 126 160 156 168 177 173 165 169 172 178 182 186 187 185 191 194 198 199 198 192 177 144 155 195 208 203 204 210 212 203 213 212 207 216 217 222 224 214 219 233 232 220 235 204 215 223 221 218 233 233 234 233 241 241 240 224 243 238 246 259 228 224 275 279
154 152 154 156 154 157 160 160 161 166 166 168 171 170 177 177 175 160 142 129 69 49 66 112 157 164 172 169 175 180 181 184 194 196 187 191 195 203 191 160 134 159 169 187 188 209 202 208 215 216 217 219 214 202 207 210 210 217 220 227 238 249 245 196 198 231 229 227 223 239 237 235 225 223 239 232 221 225 244 247 239 239 252 228 244
151 152 149 152 159 162 164 162 161 157 156 166 170 177 176 167 153 157 168 171 178 176 172 107 126 163 173 181 180 176 182 195 202 208 197 194 195 144 116 121 127 155 196 208 199 206 207 208 215 221 223 223 218 204 209 207 205 207 214 223 233 239 245 218 227 235 235 236 232 238 233 230 224 215 220 230 221 219 235 240 237 214 223 248 236
132 136 152 154 148 155 156 159 159 159 165 173 171 163 150 152 155 167 172 166 160 152 121 130 130 91 146 184 195 193 194 199 205 209 217 196 145 140 147 170 181 191 195 203 205 214 213 218 214 222 221 230 225 216 215 214 212 212 211 211 223 231 232 236 233 229 229 226 238 242 240 235 225 217 215 226 224 225 226 226 230 219 210 234 240
135 142 151 156 150 144 142 146 155 156 150 138 138 138 144 143 136 136 142 147 144 134 134 126 113 95 59 141 165 182 189 202 212 224 247 134 161 168 192 180 192 192 195 204 205 211 211 222 217 222 222 225 228 222 212 215 211 213 216 216 219 222 227 227 231 225 230 239 245 240 232 235 226 208 190 213 229 225 229 226 231 236 228 237 229
156 154 153 146 136 133 136 143 136 128 132 138 139 139 141 143 145 144 142 146 145 145 147 159 173 175 191 203 150 140 109 100 101 86 99 125 153 195 203 198 194 189 205 206 208 207 216 219 209 217 226 222 235 233 227 227 214 209 212 218 218 222 224 222 234 234 227 236 259 249 231 235 225 206 192 208 220 214 220 218 218 246 258 234 207
115 119 124 129 134 141 141 139 141 143 145 146 150 148 148 147 145 145 149 146 156 165 165 169 184 199 203 155 143 130 116 123 160 188 183 192 188 193 197 197 196 206 207 207 198 204 216 222 217 215 220 204 214 217 206 222 211 212 212 210 220 224 224 231 236 232 217 235 250 242 232 247 233 204 195 202 219 214 223 229 219 219 241 254 237
133 135 134 133 131 136 140 143 141 142 147 147 149 146 140 149 159 163 162 161 172 176 179 185 197 210 171 145 152 144 168 186 199 195 190 191 198 200 195 201 202 205 204 205 202 203 213 224 219 211 212 210 213 214 208 213 213 215 203 205 211 221 227 231 245 244 249 244 249 259 243 249 243 204 198 208 222 215 217 230 231 218 221 232 255
140 140 145 146 136 133 128 133 146 153 153 159 152 159 168 165 163 159 162 169 171 177 191 198 203 185 169 175 165 171 179 193 194 198 200 199 198 198 203 210 207 210 211 206 208 206 211 220 219 213 210 206 204 207 216 215 219 208 212 214 206 209 218 222 221 232 239 246 250 256 254 244 223 183 213 226 212 212 225 227 240 238 229 230 240
127 131 136 134 138 141 147 158 156 152 152 152 158 167 156 159 156 161 169 173 176 182 187 199 194 167 162 165 174 185 192 195 177 185 186 192 200 211 213 215 217 217 214 212 205 206 211 215 218 209 210 207 202 208 204 213 210 211 210 208 203 205 212 226 225 225 231 237 242 239 246 235 211 204 219 207 185 200 213 225 233 238 240 235 231
127 133 134 136 143 147 148 144 140 144 152 163 167 153 147 154 165 169 172 173 171 178 187 192 186 160 165 175 176 181 208 206 180 182 185 197 203 211 212 219 215 216 217 218 208 200 202 206 212 210 207 211 206 201 198 205 200 201 204 206 212 210 216 229 227 227 222 226 233 234 231 220 212 212 207 201 204 200 216 227 234 230 235 231 228
129 128 129 132 130 124 132 142 151 157 162 162 149 149 153 158 160 162 166 174 176 180 190 195 178 167 159 157 163 176 208 206 194 193 195 193 199 211 219 220 215 211 216 216 211 198 193 202 212 219 216 216 214 208 209 210 200 199 203 210 215 221 227 233 234 230 214 213 221 222 220 214 201 185 195 210 194 209 230 226 231 233 232 233 221
130 126 127 127 130 134 141 148 149 148 140 138 149 154 157 158 169 176 176 180 181 183 194 200 184 171 163 166 179 191 200 203 203 200 199 199 205 217 219 212 208 211 211 216 205 191 200 206 213 216 225 229 218 212 213 215 202 203 201 197 212 224 231 231 234 227 200 201 213 215 213 187 188 192 208 210 198 205 226 233 227 233 242 239 204
122 125 129 133 134 135 139 143 141 143 150 157 157 161 170 176 179 181 182 185 178 186 195 197 193 184 183 181 183 191 201 202 209 209 207 205 208 218 214 212 209 210 212 209 193 194 204 209 210 217 223 229 225 221 220 215 211 209 205 201 204 220 229 231 222 190 195 202 208 203 191 188 200 197 208 207 204 197 219 233 221 220 223 218 204
120 126 131 138 144 144 144 143 144 150 153 155 158 157 167 180 182 184 185 189 182 179 184 191 187 189 186 184 186 196 199 201 209 208 211 211 207 211 211 206 201 209 215 205 193 199 205 212 216 217 225 227 225 223 222 218 215 213 210 206 213 223 235 228 213 209 212 209 200 187 191 191 202 209 214 206 191 199 208 223 219 221 213 194 176
123 129 135 134 131 135 139 140 141 141 147 155 157 155 155 157 164 177 180 182 180 183 189 192 196 191 184 193 193 193 194 204 209 213 213 211 214 212 207 199 203 210 201 203 208 205 206 211 215 217 221 226 223 230 232 229 225 221 219 216 217 221 225 224 221 225 217 197 193 196 188 196 209 209 198 183 197 187 194 219 189 169 158 153 145
137 139 137 142 144 148 154 160 160 167 169 160 153 156 156 161 172 171 171 183 188 192 191 198 204 195 188 188 181 190 191 194 205 212 217 215 207 210 207 207 203 195 195 213 215 210 211 212 212 214 216 217 219 223 227 223 222 224 224 228 230 232 233 227 220 219 196 183 183 184 191 197 198 201 185 190 197 177 163 136 144 142 130 123 125
138 136 138 143 149 156 153 153 159 159 155 158 163 167 164 164 166 171 178 183 195 198 202 200 200 193 186 179 182 189 186 197 207 214 214 208 204 202 202 205 201 197 202 217 220 216 213 210 211 213 216 218 217 221 221 224 226 225 230 232 234 225 223 215 208 193 174 173 178 186 186 191 196 189 178 168 149 138 140 144 145 137 137 136 140
137 140 143 149 150 149 150 154 158 162 162 166 166 165 167 174 186 180 174 179 193 205 210 204 198 184 188 193 190 190 197 207 210 214 214 206 195 194 196 200 204 207 214 223 228 221 218 213 213 211 212 215 219 221 226 227 228 225 227 224 205 194 196 187 194 198 190 181 177 169 168 174 159 151 140 138 137 137 140 137 138 139 140 135 126